User: anonymous   Login
Location: Unspecified
(0.0000°N, 0.0000°E)
Time: 20:45:09
(UTC+01:00)
Language:

Resurs 1-3 - Orbit

View from above orbital plane
View from above orbital plane
View from above satellite
View from above satellite

Ground track
Ground track

The orbit data is extracted from the following two-line orbital elements,

1 23342U 94074A   17054.71182513  .00000107  00000-0  21522-4 0  9997
2 23342  98.0930  92.3129 0001939  99.9548 260.1882 14.79243724201000
Epoch (UTC): 23 February 2017 17:05:01
Eccentricity: 0.0001939
inclination: 98.0930°
perigee height: 630 km
apogee height: 633 km
right ascension of ascending node: 92.3129°
argument of perigee: 99.9548°
revolutions per day: 14.79243724
mean anomaly at epoch: 260.1882°
orbit number at epoch: 20100

The dashed part of the orbit path shows where the satellite is in the earth's shadow,  

DLR